Date String (YYYY-MM-DD hh:mm:ss) UTC,Instrument flags,absolute air pressure of the measurement (hPa),sample flow rate (lpm),inlet stack bypass flow (lpm),air temperature of the measurement (°C),ambient temperature measured by the external sensor (°C),aerosol sample conditioner tube jacket temperature (°C),OPC LED temperature (°C),internal box temperature (°C),relative humidity of the measurement (%),span deviation,mass concentration of particles derived from Lorenz-Mie calculation of OPC scattering (μg/m³),mass concentration of particles derived from Lorenz-Mie calculation of OPC scattering (μg/m³),mass concentration of particles derived from Lorenz-Mie calculation of OPC scattering (μg/m³)
DateTimeUTC,F1_M11,P_M11,Q1_M11,Q2_M11,T1_M11,T2_M11,T3_M11,T4_M11,T5_M11,U1_M11,ZSPAN_M11,X2_M11,X0_M11,X1_M11
2024-03-29 05:00:00,SystemResetWarning,0820.5,4.99,000.00,022.5,021.7,000.0,031.1,024.3,13.8,0000.0,0003.07,0006.07,0001.71
2024-03-29 05:01:00,SystemResetWarning,0821.1,4.99,000.00,022.5,021.7,000.0,031.1,024.4,13.7,0000.0,0003.04,0005.99,0001.70
2024-03-29 05:02:00,SystemResetWarning,0820.7,5.00,000.00,022.5,021.7,000.0,031.1,024.4,13.8,0000.0,0003.04,0006.45,0001.69
2024-03-29 05:03:00,SystemResetWarning,0820.9,5.01,000.00,022.5,021.7,000.0,031.1,024.4,13.9,0000.0,0003.05,0007.21,0001.68
2024-03-29 05:04:00,SystemResetWarning,0820.9,5.01,000.00,022.5,021.7,000.0,031.1,024.4,14.0,0000.0,0003.09,0007.39,0001.67
2024-03-29 05:05:00,SystemResetWarning,0820.8,5.00,000.00,022.5,021.7,000.0,031.1,024.4,14.1,0000.0,0003.07,0007.41,0001.68
2024-03-29 05:06:00,SystemResetWarning,0820.8,4.99,000.00,022.5,021.7,000.0,031.1,024.4,14.0,0000.0,0003.04,0008.07,0001.69
2024-03-29 05:07:00,SystemResetWarning,0820.7,5.00,000.00,022.5,021.7,000.0,031.1,024.4,13.9,0000.0,0003.00,0008.02,0001.68
2024-03-29 05:08:00,SystemResetWarning,0820.9,4.99,000.00,022.6,021.7,000.0,031.1,024.4,13.9,0000.0,0003.01,0008.22,0001.68
2024-03-29 05:09:00,SystemResetWarning,0820.9,5.01,000.00,022.6,021.7,000.0,031.1,024.4,13.8,0000.0,0002.98,0008.17,0001.68
2024-03-29 05:10:00,SystemResetWarning,0820.9,5.01,000.00,022.6,021.7,000.0,031.1,024.4,13.8,0000.0,0003.04,0008.24,0001.68
2024-03-29 05:11:00,SystemResetWarning,0820.9,5.01,000.00,022.5,021.7,000.0,031.1,024.4,13.7,0000.0,0003.06,0008.24,0001.67
2024-03-29 05:12:00,SystemResetWarning,0820.9,4.99,000.00,022.5,021.6,000.0,031.1,024.4,13.8,0000.0,0003.05,0008.24,0001.66
2024-03-29 05:13:00,SystemResetWarning,0820.5,4.99,000.00,022.5,021.7,000.0,031.1,024.4,13.8,0000.0,0003.01,0008.63,0001.65
2024-03-29 05:14:00,SystemResetWarning,0820.4,5.01,000.00,022.5,021.7,000.0,031.1,024.4,13.7,0000.0,0002.96,0008.58,0001.65
2024-03-29 05:15:00,SystemResetWarning,0820.6,5.00,000.00,022.5,021.6,000.0,031.1,024.3,13.8,0000.0,0002.93,0008.54,0001.65
2024-03-29 05:16:00,SystemResetWarning,0820.7,5.00,000.00,022.5,021.6,000.0,031.1,024.3,13.9,0000.0,0002.90,0008.78,0001.64
2024-03-29 05:17:00,SystemResetWarning,0820.7,5.00,000.00,022.5,021.6,000.0,031.1,024.3,14.0,0000.0,0002.91,0008.11,0001.63
2024-03-29 05:18:00,SystemResetWarning,0820.5,4.99,000.00,022.5,021.7,000.0,031.1,024.4,14.0,0000.0,0002.88,0008.06,0001.62
2024-03-29 05:19:00,SystemResetWarning,0820.6,5.01,000.00,022.5,021.7,000.0,031.1,024.4,13.9,0000.0,0002.86,0007.84,0001.62
2024-03-29 05:20:00,SystemResetWarning,0820.9,5.00,000.00,022.5,021.7,000.0,031.1,024.4,14.0,0000.0,0002.86,0007.89,0001.60
2024-03-29 05:21:00,SystemResetWarning,0820.8,5.00,000.00,022.5,021.7,000.0,031.1,024.4,13.9,0000.0,0002.82,0007.86,0001.58
2024-03-29 05:22:00,SystemResetWarning,0820.8,5.00,000.00,022.5,021.7,000.0,031.1,024.4,13.7,0000.0,0002.84,0008.19,0001.58
2024-03-29 05:23:00,SystemResetWarning,0820.9,4.99,000.00,022.5,021.7,000.0,031.1,024.4,13.8,0000.0,0002.86,0008.28,0001.58
2024-03-29 05:24:00,SystemResetWarning,0820.8,4.99,000.00,022.5,021.7,000.0,031.1,024.4,13.8,0000.0,0002.90,0008.23,0001.60
2024-03-29 05:25:00,SystemResetWarning,0820.9,5.00,000.00,022.5,021.7,000.0,031.1,024.4,13.8,0000.0,0002.92,0007.44,0001.59
2024-03-29 05:26:00,SystemResetWarning,0820.8,5.01,000.00,022.5,021.7,000.0,031.1,024.4,13.7,0000.0,0002.94,0007.55,0001.60
2024-03-29 05:27:00,SystemResetWarning,0820.8,5.01,000.00,022.5,021.7,000.0,031.1,024.4,13.5,0000.0,0002.89,0007.30,0001.60
2024-03-29 05:28:00,SystemResetWarning,0820.9,5.00,000.00,022.6,021.7,000.0,031.1,024.4,13.7,0000.0,0002.86,0008.14,0001.60
2024-03-29 05:29:00,SystemResetWarning,0820.8,5.00,000.00,022.5,021.7,000.0,031.1,024.4,13.7,0000.0,0002.84,0008.66,0001.59
2024-03-29 05:30:00,SystemResetWarning,0820.4,5.00,000.00,022.5,021.7,000.0,031.1,024.4,13.6,0000.0,0002.81,0008.66,0001.59
2024-03-29 05:31:00,SystemResetWarning,0820.5,5.00,000.00,022.5,021.7,000.0,031.1,024.4,13.6,0000.0,0002.81,0008.59,0001.61
2024-03-29 05:32:00,SystemResetWarning,0820.3,5.00,000.00,022.5,021.7,000.0,031.1,024.4,13.4,0000.0,0002.82,0008.61,0001.63
2024-03-29 05:33:00,SystemResetWarning,0820.3,5.01,000.00,022.5,021.7,000.0,031.1,024.4,13.5,0000.0,0002.77,0008.33,0001.63
2024-03-29 05:34:00,SystemResetWarning,0820.4,5.00,000.00,022.5,021.7,000.0,031.1,024.4,13.5,0000.0,0002.67,0008.00,0001.63
2024-03-29 05:35:00,SystemResetWarning,0820.3,4.99,000.00,022.5,021.7,000.0,031.1,024.4,13.4,0000.0,0002.64,0007.97,0001.63
2024-03-29 05:36:00,SystemResetWarning,0820.4,4.99,000.00,022.6,021.7,000.0,031.1,024.4,13.3,0000.0,0002.61,0007.67,0001.64
2024-03-29 05:37:00,SystemResetWarning,0820.4,5.00,000.00,022.6,021.7,000.0,031.1,024.4,13.3,0000.0,0002.65,0007.61,0001.64
2024-03-29 05:38:00,SystemResetWarning,0820.4,5.01,000.00,022.6,021.7,000.0,031.1,024.4,13.3,0000.0,0002.66,0007.59,0001.64
2024-03-29 05:39:00,SystemResetWarning,0820.3,5.01,000.00,022.6,021.7,000.0,031.1,024.4,13.3,0000.0,0002.71,0006.15,0001.63
2024-03-29 05:40:00,SystemResetWarning,0820.3,5.00,000.00,022.5,021.7,000.0,031.1,024.4,13.4,0000.0,0002.78,0005.10,0001.64
2024-03-29 05:41:00,SystemResetWarning,0820.3,5.00,000.00,022.5,021.7,000.0,031.1,024.4,13.5,0000.0,0002.85,0005.21,0001.65
2024-03-29 05:42:00,SystemResetWarning,0820.2,4.99,000.00,022.5,021.7,000.0,031.1,024.4,13.4,0000.0,0002.88,0005.39,0001.63
2024-03-29 05:43:00,SystemResetWarning,0820.2,5.00,000.00,022.5,021.6,000.0,031.1,024.4,13.3,0000.0,0002.83,0005.37,0001.62
2024-03-29 05:44:00,SystemResetWarning,0820.1,4.99,000.00,022.5,021.6,000.0,031.1,024.3,13.4,0000.0,0002.89,0005.53,0001.62
2024-03-29 05:45:00,SystemResetWarning,0820.2,5.00,000.00,022.5,021.6,000.0,031.1,024.3,13.5,0000.0,0002.93,0006.88,0001.62
2024-03-29 05:46:00,SystemResetWarning,0820.2,5.00,000.00,022.5,021.6,000.0,031.1,024.3,13.6,0000.0,0003.00,0007.34,0001.62
2024-03-29 05:47:00,SystemResetWarning,0820.2,5.00,000.00,022.5,021.6,000.0,031.1,024.4,13.6,0000.0,0002.96,0007.30,0001.61
2024-03-29 05:48:00,SystemResetWarning,0820.3,5.00,000.00,022.5,021.6,000.0,031.1,024.4,13.5,0000.0,0002.87,0007.13,0001.61
2024-03-29 05:49:00,SystemResetWarning,0820.2,5.00,000.00,022.5,021.6,000.0,031.1,024.3,13.7,0000.0,0002.85,0007.08,0001.61
2024-03-29 05:50:00,SystemResetWarning,0820.2,5.01,000.00,022.5,021.6,000.0,031.1,024.4,13.8,0000.0,0002.85,0007.11,0001.61
2024-03-29 05:51:00,SystemResetWarning,0820.2,5.01,000.00,022.5,021.6,000.0,031.1,024.3,13.6,0000.0,0002.82,0007.01,0001.60
2024-03-29 05:52:00,SystemResetWarning,0820.2,5.00,000.00,022.5,021.6,000.0,031.1,024.3,13.5,0000.0,0002.76,0006.91,0001.59
2024-03-29 05:53:00,SystemResetWarning,0820.2,4.99,000.00,022.5,021.5,000.0,031.1,024.3,13.4,0000.0,0002.77,0006.94,0001.59
2024-03-29 05:54:00,SystemResetWarning,0820.2,4.99,000.00,022.5,021.5,000.0,031.1,024.3,13.4,0000.0,0002.82,0006.91,0001.60
2024-03-29 05:55:00,SystemResetWarning,0820.2,5.00,000.00,022.4,021.4,000.0,031.1,024.2,13.5,0000.0,0002.79,0006.89,0001.60
2024-03-29 05:56:00,SystemResetWarning,0820.3,5.01,000.00,022.4,021.4,000.0,031.1,024.2,13.6,0000.0,0002.79,0006.81,0001.59
2024-03-29 05:57:00,SystemResetWarning,0820.3,5.00,000.00,022.4,021.4,000.0,031.0,024.2,13.9,0000.0,0002.74,0006.48,0001.58
2024-03-29 05:58:00,SystemResetWarning,0820.3,5.01,000.00,022.4,021.4,000.0,031.0,024.2,13.8,0000.0,0002.79,0006.62,0001.58
2024-03-29 05:59:00,SystemResetWarning,0820.3,5.01,000.00,022.4,021.4,000.0,031.0,024.2,13.5,0000.0,0002.83,0006.66,0001.59
